Weather reports worldwide

Advertisment
Baruth, Germany (10376): temperature & dewpoint: 12.10.2018 03:00:00 - 18.10.2018 03:00:00 (CEST)Baruth, Germany (10376): temperature 5cm & temperature -5cm: 12.10.2018 03:00:00 - 18.10.2018 03:00:00 (CEST)Baruth, Germany (10376): temperature -20cm & temperature -100cm: 12.10.2018 03:00:00 - 18.10.2018 03:00:00 (CEST)Baruth, Germany (10376): wind speed & gusts: 12.10.2018 03:00:00 - 18.10.2018 03:00:00 (CEST)Baruth, Germany (10376): wind direction: 12.10.2018 03:00:00 - 18.10.2018 03:00:00 (CEST)Baruth, Germany (10376): reduced air pressure: 12.10.2018 03:00:00 - 18.10.2018 03:00:00 (CEST)Baruth, Germany (10376): visibility: 12.10.2018 03:00:00 - 18.10.2018 03:00:00 (CEST)Baruth, Germany (10376): sunshine duration: 12.10.2018 03:00:00 - 18.10.2018 03:00:00 (CEST)Baruth, Germany (10376): precipitation: 12.10.2018 03:00:00 - 18.10.2018 03:00:00 (CEST)
Date & Time tt [°C] td [°C] tt 5cm [°C] tt -5cm [°C] tt -20cm [°C] tt -100cm [°C] ff [km/h] ff [kn] fx [km/h] fx [kn] dd ppp [hPa] vv [km] sd [min] rr [mm]
18.10.2018 03:00:00 2,6 1,8 1,1 9,3 12,6 14,0 2 1 4 2 WNW 1019,8 0,9 0 0,0
18.10.2018 02:00:00 3,7 3,0 1,8 9,8 12,9 14,0 3 2 4 2 WSW 1019,7 0,2 0 0,0
18.10.2018 01:00:00 4,9 4,2 2,4 10,3 13,2 14,0 0 0 6 3 N 1019,6 3,3 0 0,0
18.10.2018 00:00:00 5,3 4,6 3,0 10,8 13,6 14,0 2 1 4 2 SE 1019,7 1,3 0 0,0
17.10.2018 23:00:00 6,4 5,7 3,4 11,4 13,9 14,0 2 1 4 2 ESE 1019,8 1,2 0 0,0
17.10.2018 22:00:00 8,0 7,2 4,4 12,1 14,2 14,0 3 2 8 4 SE 1019,8 3,9 0 0,0
17.10.2018 21:00:00 8,3 7,4 5,4 12,9 14,5 14,1 2 1 4 2 E 1019,5 2,3 0 0,0
17.10.2018 20:00:00 9,6 8,6 6,2 13,9 14,8 14,1 0 0 5 3 N 1019,4 3,2 0 0,0
17.10.2018 19:00:00 12,0 9,5 7,5 15,2 15,0 14,1 3 2 5 3 SE 1019,1 6 0 0,0
17.10.2018 18:00:00 15,6 10,0 11,8 16,9 14,9 14,1 5 3 10 5 SE 1018,6 9 36 0,0
17.10.2018 17:00:00 18,8 9,7 19,1 18,3 14,6 14,1 8 4 12 7 SSE 1018,5 9 60 0,0
17.10.2018 16:00:00 20,0 9,2 21,6 18,9 14,1 14,1 8 5 15 8 SE 1018,5 11 60 0,0
17.10.2018 15:00:00 19,5 8,8 21,7 18,7 13,4 14,1 7 4 16 9 ESE 1018,7 14 60 0,0
17.10.2018 14:00:00 19,5 9,2 22,3 17,8 12,7 14,1 9 5 14 8 ESE 1018,9 11 60 0,0
17.10.2018 13:00:00 18,2 9,5 20,8 16,1 12,0 14,1 3 2 8 4 SW 1019,4 9 60 0,0
17.10.2018 12:00:00 16,2 9,3 18,7 13,8 11,6 14,1 3 1 15 8 ESE 1019,9 7 60 0,0
17.10.2018 11:00:00 12,2 8,1 13,9 11,3 11,3 14,1 8 5 12 7 ESE 1020,2 7 60 0,0
17.10.2018 10:00:00 9,4 6,5 8,9 9,4 11,3 14,1 2 1 6 3 SE 1020,1 6 60 0,0
17.10.2018 09:00:00 5,6 3,7 4,9 8,4 11,5 14,1 0 0 9 5 N 1020,0 4,9 37 0,0
17.10.2018 08:00:00 3,2 2,5 1,0 8,4 11,8 14,1 5 3 7 4 ESE 1020,0 2,2 0 0,0
17.10.2018 07:00:00 4,8 4,0 3,3 8,7 12,0 14,1 6 3 14 8 ESE 1019,6 4,7 0 0,0
17.10.2018 06:00:00 3,6 2,8 1,5 8,9 12,3 14,1 4 2 6 3 ESE 1019,4 2,4 0 0,0
17.10.2018 05:00:00 4,5 3,5 1,8 9,3 12,6 14,1 0 0 9 5 N 1019,3 2,8 0 0,0
17.10.2018 04:00:00 4,4 3,5 2,0 9,7 12,9 14,1 5 3 6 4 E 1019,3 7 0 0,0
17.10.2018 03:00:00 4,8 3,9 1,9 10,1 13,2 14,1 3 2 6 3 SE 1019,6 1,9 0 0,0
17.10.2018 02:00:00 4,5 3,5 2,4 10,6 13,5 14,1 4 2 5 3 W 1019,5 10 0 0,0
17.10.2018 01:00:00 5,5 4,3 2,5 11,2 13,9 14,1 0 0 6 3 N 1019,5 0,2 0 0,0
17.10.2018 00:00:00 6,8 5,9 3,9 11,8 14,2 14,1 0 0 4 2 N 1019,6 1,6 0 0,0
16.10.2018 23:00:00 8,3 7,1 5,0 12,5 14,5 14,2 1 1 3 1 E 1019,5 7 0 0,0
16.10.2018 22:00:00 9,8 8,0 6,2 13,3 14,8 14,2 0 0 4 2 N 1019,7 10 0 0,0
16.10.2018 21:00:00 10,7 8,1 9,1 14,1 15,0 14,2 3 2 4 2 WSW 1019,6 13 0 0,0
16.10.2018 20:00:00 11,9 9,1 10,2 14,6 15,3 14,2 3 2 5 3 WNW 1019,3 14 0 0,0
16.10.2018 19:00:00 13,4 8,6 8,5 15,8 15,4 14,2 4 2 6 4 ESE 1019,0 24 0 0,0
16.10.2018 18:00:00 16,3 8,6 12,6 17,6 15,4 14,2 0 0 8 4 N 1018,6 28 36 0,0
16.10.2018 17:00:00 19,9 8,5 20,1 18,9 15,0 14,2 5 3 10 5 SE 1018,3 29 57 0,0
16.10.2018 16:00:00 20,5 8,5 21,2 19,9 14,4 14,2 8 4 14 8 SE 1018,2 31 55 0,0
16.10.2018 15:00:00 20,7 7,9 23,8 18,9 13,8 14,2 10 5 16 8 ESE 1018,0 29 31 0,0
16.10.2018 14:00:00 20,3 6,6 23,4 18,0 13,1 14,2 6 3 13 7 SE 1018,2 29 32 0,0
16.10.2018 13:00:00 19,1 6,7 22,4 15,9 12,5 14,2 6 4 10 6 SE 1018,3 37 50 0,0
16.10.2018 12:00:00 16,2 7,7 17,1 14,4 12,0 14,3 8 4 16 8 SE 1018,6 29 45 0,0
16.10.2018 11:00:00 14,2 7,2 16,1 12,3 11,7 14,3 8 4 16 9 ESE 1018,5 34 60 0,0
16.10.2018 10:00:00 11,7 6,1 11,5 10,4 11,7 14,3 6 3 12 7 ESE 1018,3 23 60 0,0
16.10.2018 09:00:00 8,6 5,0 8,5 9,4 11,8 14,3 7 4 16 8 ESE 1018,2 19 30 0,0
16.10.2018 08:00:00 8,4 4,8 7,3 9,3 12,0 14,3 9 5 17 9 E 1017,8 16 0 0,0
16.10.2018 07:00:00 7,8 4,5 6,3 9,5 12,1 14,3 9 5 16 9 ESE 1017,6 17 0 0,0
16.10.2018 06:00:00 7,1 4,2 6,2 9,3 12,4 14,3 8 4 14 7 ESE 1017,3 17 0 0,0
16.10.2018 05:00:00 4,6 2,9 2,4 9,6 12,6 14,3 6 4 11 6 ESE 1017,4 14 0 0,0
16.10.2018 04:00:00 6,4 3,7 3,7 10,0 12,9 14,3 5 3 12 7 E 1017,3 19 0 0,0
16.10.2018 03:00:00 8,0 4,1 5,1 10,3 13,1 14,3 6 4 15 8 E 1017,1 20 0 0,0
16.10.2018 02:00:00 8,7 4,1 5,3 10,5 13,4 14,3 10 5 14 7 ESE 1017,2 22 0 0,0
16.10.2018 01:00:00 8,2 4,3 5,3 10,8 13,7 14,3 9 5 14 8 E 1016,9 21 0 0,0
16.10.2018 00:00:00 8,3 4,2 3,7 11,3 14,0 14,3 8 4 12 7 ESE 1017,0 19 0 0,0
15.10.2018 23:00:00 11,0 4,6 9,0 11,7 14,3 14,3 10 5 15 8 ESE 1017,1 24 0 0,0
15.10.2018 22:00:00 7,7 4,3 5,1 12,4 14,7 14,3 7 4 12 6 ESE 1017,0 18 0 0,0
15.10.2018 21:00:00 9,0 4,6 6,0 13,2 15,0 14,3 5 3 13 7 E 1016,8 19 0 0,0
15.10.2018 20:00:00 13,4 4,8 10,6 14,0 15,3 14,3 9 5 14 8 E 1016,5 14 0 0,0
15.10.2018 19:00:00 11,7 5,2 7,1 15,3 15,5 14,3 6 3 13 7 E 1016,3 22 0 0,0
15.10.2018 18:00:00 17,6 5,0 15,1 16,8 15,5 14,3 8 5 13 7 E 1015,8 23 0 0,0
15.10.2018 17:00:00 19,1 5,2 17,7 18,3 15,3 14,3 8 4 21 12 SE 1015,7 26 14 0,0
15.10.2018 16:00:00 21,1 3,7 21,9 19,1 14,8 14,3 19 10 29 15 SSE 1015,6 30 60 0,0
15.10.2018 15:00:00 20,4 4,6 21,2 17,9 14,4 14,3 18 10 29 16 SE 1015,9 29 11 0,0
15.10.2018 14:00:00 20,3 5,0 21,5 17,8 13,9 14,3 15 8 24 13 ESE 1015,9 33 25 0,0
15.10.2018 13:00:00 19,9 5,5 20,4 17,5 13,4 14,3 11 6 21 12 SSE 1016,1 39 38 0,0
15.10.2018 12:00:00 20,2 5,1 22,4 15,7 12,8 14,3 14 7 24 13 S 1016,1 37 59 0,0
15.10.2018 11:00:00 18,2 5,4 19,5 13,3 12,5 14,3 8 4 19 10 ESE 1016,1 33 60 0,0
15.10.2018 10:00:00 14,1 5,0 13,7 11,3 12,5 14,3 13 7 19 11 ESE 1016,0 32 60 0,0
15.10.2018 09:00:00 11,3 4,1 11,4 10,0 12,7 14,3 10 5 17 9 E 1015,8 32 19 0,0
15.10.2018 08:00:00 10,6 4,1 8,6 10,1 13,0 14,3 8 4 19 10 E 1015,3 35 1 0,0
15.10.2018 07:00:00 10,3 3,9 9,1 10,4 13,2 14,3 14 8 21 11 ESE 1015,1 35 0 0,0
15.10.2018 06:00:00 11,3 3,9 9,9 10,6 13,4 14,3 13 7 21 11 E 1015,2 36 0 0,0
15.10.2018 05:00:00 11,5 4,1 9,8 10,9 13,7 14,3 13 7 19 10 ESE 1015,2 35 0 0,0
15.10.2018 04:00:00 11,9 4,3 10,2 11,2 14,0 14,3 11 6 19 10 ESE 1015,3 35 0 0,0
15.10.2018 03:00:00 11,4 4,4 9,5 11,6 14,2 14,3 11 6 19 10 E 1015,2 33 0 0,0
15.10.2018 02:00:00 12,4 4,5 10,7 12,0 14,5 14,3 13 7 18 10 ESE 1015,1 38 0 0,0
15.10.2018 01:00:00 13,0 4,9 11,0 12,4 14,9 14,3 11 6 18 10 ESE 1015,0 35 0 0,0
15.10.2018 00:00:00 14,2 5,4 12,1 12,8 15,2 14,3 14 8 17 9 SE 1014,9 33 0 0,0
14.10.2018 23:00:00 14,7 6,1 12,6 13,3 15,5 14,3 13 7 22 12 ESE 1015,0 28 0 0,0
14.10.2018 22:00:00 14,5 6,7 12,6 13,7 15,9 14,3 16 9 20 11 SE 1014,8 25 0 0,0
14.10.2018 21:00:00 10,8 6,6 6,8 14,6 16,3 14,3 9 5 14 8 ESE 1015,1 20 0 0,0
14.10.2018 20:00:00 13,6 7,0 7,8 15,8 16,7 14,3 6 4 12 6 E 1014,9 15 0 0,0
14.10.2018 19:00:00 17,7 8,0 11,2 17,4 16,9 14,3 8 4 12 7 E 1014,7 16 1 0,0
14.10.2018 18:00:00 21,2 7,7 18,5 19,2 16,8 14,3 9 5 24 13 SE 1014,4 30 60 0,0
14.10.2018 17:00:00 23,0 8,2 23,5 20,7 16,4 14,3 16 8 33 18 SE 1014,5 31 60 0,0
14.10.2018 16:00:00 24,0 7,3 25,1 21,4 15,8 14,3 18 10 34 18 SSE 1014,6 40 60 0,0
14.10.2018 15:00:00 24,0 6,9 25,7 21,3 15,1 14,3 26 14 40 21 SE 1014,9 29 60 0,0
14.10.2018 14:00:00 23,4 6,9 25,3 20,3 14,2 14,3 23 13 37 20 SE 1015,6 25 60 0,0
14.10.2018 13:00:00 22,5 7,8 24,0 18,5 13,5 14,3 19 10 41 22 SSE 1016,2 29 60 0,0
14.10.2018 12:00:00 20,4 7,7 22,1 16,2 12,8 14,3 23 12 34 18 SSE 1016,7 27 60 0,0
14.10.2018 11:00:00 17,2 9,1 19,2 13,4 12,5 14,3 9 5 19 10 SE 1017,2 18 60 0,0
14.10.2018 10:00:00 13,1 7,9 12,6 11,1 12,5 14,2 12 6 19 10 ESE 1017,5 15 60 0,0
14.10.2018 09:00:00 10,2 6,7 10,4 9,8 12,7 14,2 11 6 16 9 ESE 1017,7 11 58 0,0
14.10.2018 08:00:00 8,5 6,2 7,1 9,6 13,0 14,2 10 5 19 11 ESE 1017,6 10 0 0,0
14.10.2018 07:00:00 9,0 6,6 7,6 10,0 13,2 14,2 13 7 24 13 SE 1017,7 10 0 0,0
14.10.2018 06:00:00 9,8 6,7 8,6 10,3 13,5 14,2 14 8 21 11 ESE 1018,2 11 0 0,0
14.10.2018 05:00:00 9,3 6,8 7,6 10,6 13,8 14,2 10 5 18 10 ESE 1018,7 9 0 0,0
14.10.2018 04:00:00 9,3 6,8 7,7 11,0 14,2 14,2 11 6 21 11 ESE 1019,2 9 0 0,0
14.10.2018 03:00:00 10,2 7,0 8,8 11,4 14,5 14,2 13 7 17 9 ESE 1019,8 11 0 0,0
14.10.2018 02:00:00 10,5 7,2 8,9 11,9 14,9 14,1 12 6 17 9 ESE 1020,3 12 0 0,0
14.10.2018 01:00:00 11,1 7,4 9,7 12,3 15,3 14,1 13 7 17 9 ESE 1020,7 13 0 0,0
14.10.2018 00:00:00 10,4 7,0 6,2 12,8 15,7 14,1 11 6 16 9 ESE 1021,0 14 0 0,0
13.10.2018 23:00:00 12,1 7,5 8,1 13,4 16,1 14,1 11 6 14 8 ESE 1021,2 19 0 0,0
13.10.2018 22:00:00 12,5 7,6 7,0 14,2 16,6 14,1 8 4 12 7 ESE 1021,5 21 0 0,0
13.10.2018 21:00:00 13,6 7,9 7,9 15,3 17,0 14,1 8 4 14 8 ESE 1021,6 23 0 0,0
13.10.2018 20:00:00 15,9 8,1 9,9 16,5 17,4 14,1 9 5 12 7 SE 1021,9 27 0 0,0
13.10.2018 19:00:00 18,5 8,0 12,5 18,2 17,7 14,1 9 5 14 7 ESE 1021,8 32 12 0,0
13.10.2018 18:00:00 21,1 8,4 17,6 20,3 17,6 14,1 9 5 18 10 ESE 1021,8 33 60 0,0
13.10.2018 17:00:00 23,8 8,4 24,2 22,0 17,3 14,1 12 7 27 15 ESE 1022,1 38 60 0,0
13.10.2018 16:00:00 24,5 8,0 25,8 22,8 16,7 14,1 14 7 29 16 ESE 1022,5 32 60 0,0
13.10.2018 15:00:00 24,8 8,7 26,9 22,8 15,9 14,1 13 7 29 16 ESE 1023,1 31 60 0,0
13.10.2018 14:00:00 24,2 10,2 26,4 22,0 15,0 14,1 13 7 25 13 ESE 1023,7 23 60 0,0
13.10.2018 13:00:00 23,5 10,7 25,5 20,1 14,1 14,1 11 6 19 10 SE 1024,2 19 60 0,0
13.10.2018 12:00:00 21,3 11,0 23,9 17,7 13,5 14,1 10 6 18 10 ESE 1024,9 16 60 0,0
13.10.2018 11:00:00 18,0 10,5 20,0 14,8 13,1 14,1 11 6 18 10 ESE 1025,1 14 60 0,0
13.10.2018 10:00:00 15,3 9,7 15,4 12,5 13,0 14,0 9 5 14 8 ESE 1025,5 12 60 0,0
13.10.2018 09:00:00 11,5 8,2 12,0 10,9 13,1 14,0 13 7 17 9 ESE 1025,6 9 60 0,0
13.10.2018 08:00:00 9,6 7,7 8,6 10,6 13,4 14,0 11 6 14 8 ESE 1025,3 8 4 0,0
13.10.2018 07:00:00 9,7 7,7 8,5 10,9 13,6 14,0 11 6 16 8 ESE 1025,2 8 0 0,0
13.10.2018 06:00:00 10,1 7,9 8,8 11,2 13,9 14,0 9 5 13 7 ESE 1025,1 9 0 0,0
13.10.2018 05:00:00 10,1 8,1 8,4 11,5 14,2 14,0 9 5 14 7 ESE 1025,0 9 0 0,0
13.10.2018 04:00:00 10,7 8,4 7,9 11,9 14,5 14,0 9 5 14 8 ESE 1024,8 11 0 0,0
13.10.2018 03:00:00 11,9 9,2 10,1 12,2 14,8 13,9 11 6 14 8 ESE 1024,8 12 0 0,0
13.10.2018 02:00:00 10,5 8,2 7,5 12,8 15,1 13,9 6 3 14 7 E 1024,9 11 0 0,0
13.10.2018 01:00:00 12,6 9,3 11,1 13,3 15,5 13,9 10 5 15 8 ESE 1024,7 13 0 0,0
13.10.2018 00:00:00 13,1 9,5 11,5 13,7 15,8 13,9 10 5 14 7 ESE 1024,5 14 0 0,0
12.10.2018 23:00:00 12,8 9,5 9,3 14,2 16,2 13,9 9 5 13 7 E 1024,6 14 0 0,0
12.10.2018 22:00:00 12,9 10,2 9,6 15,0 16,6 13,9 8 4 12 6 ESE 1024,6 14 0 0,0
12.10.2018 21:00:00 13,1 10,3 10,2 15,9 17,0 13,9 6 3 11 6 ESE 1024,4 18 0 0,0
12.10.2018 20:00:00 14,6 11,0 10,9 17,1 17,3 13,9 4 2 7 4 ESE 1024,2 20 0 0,0
12.10.2018 19:00:00 19,0 10,9 13,1 18,7 17,5 13,9 7 4 10 6 SE 1023,6 26 10 0,0
12.10.2018 18:00:00 22,4 10,6 19,9 20,8 17,4 13,9 9 5 13 7 SE 1022,9 32 59 0,0
12.10.2018 17:00:00 25,3 9,5 25,7 22,3 17,0 13,9 5 3 16 8 S 1022,9 36 60 0,0
12.10.2018 16:00:00 25,8 9,3 27,2 23,0 16,3 13,9 8 4 14 8 S 1022,7 35 60 0,0
12.10.2018 15:00:00 25,4 8,7 27,5 22,9 15,5 13,9 11 6 18 10 SSE 1022,6 43 60 0,0
12.10.2018 14:00:00 24,5 10,0 27,1 21,9 14,5 13,9 10 5 18 10 SSE 1022,6 33 60 0,0
12.10.2018 13:00:00 23,3 9,1 25,4 20,0 13,6 13,9 9 5 15 8 SSE 1022,7 29 60 0,0
12.10.2018 12:00:00 21,7 9,5 23,7 17,5 12,9 13,8 9 5 16 8 SSE 1022,8 25 60 0,0
12.10.2018 11:00:00 19,0 10,4 21,1 14,5 12,5 13,8 4 2 10 5 ESE 1022,5 18 60 0,0
12.10.2018 10:00:00 15,4 9,3 15,8 11,8 12,4 13,8 5 3 16 9 E 1021,9 19 60 0,0
12.10.2018 09:00:00 11,8 8,2 12,0 10,1 12,5 13,8 10 6 15 8 ESE 1021,6 14 60 0,0
12.10.2018 08:00:00 9,7 7,7 8,3 9,9 12,7 13,8 9 5 16 9 ESE 1021,0 10 4 0,0
12.10.2018 07:00:00 10,1 7,7 8,7 10,2 13,0 13,8 11 6 18 10 ESE 1020,6 11 0 0,0
12.10.2018 06:00:00 10,6 7,8 9,1 10,5 13,3 13,8 11 6 18 10 E 1020,1 13 0 0,0
12.10.2018 05:00:00 10,9 7,8 9,4 10,8 13,5 13,7 10 6 18 10 ESE 1019,8 14 0 0,0
12.10.2018 04:00:00 11,3 7,7 9,7 11,2 13,8 13,7 13 7 18 10 ESE 1019,5 15 0 0,0
12.10.2018 03:00:00 10,9 7,3 9,3 11,6 14,2 13,7 12 7 16 9 ESE 1019,3 16 0 0,0

tt = temperature
td = dewpoint
tt 5cm = temperature 5cm
tt -5cm = temperature -5cm
tt -20cm = temperature -20cm
tt -100cm = temperature -100cm
ff = wind speed
fx = gusts
dd = wind direction
ppp = reduced air pressure
vv = visibility
sd = sunshine duration
rr = precipitation

Next stations